Погода в Дархане

Монголия     49°27′46″N   105°58′12″E
темп.,
°C
ветер,
м/с
пор.,
м/с
влажн.,
%
обл.,
%
осадки,
мм/ч
давл.,
гПа
погр.,
м
10 августа, ср
ср1023:00+18зюз0058100 0.0 100711
02:00+17ю1164100 0.0 100711
05:00+14ю228469 0.0 100710
08:00+17зюз007522 0.0 1007206
11:00+21ссз21548 0.0 1006913
14:00+24с424499 0.0 10051291
17:00+23ссв3347100 0.0 1004919
20:00+18с1169100 0.8 100412
11 августа, чт
чт1123:00+16зсз2280100 0.7 100716
02:00+15сз3684100 0.8 1008166
05:00+14ссз228935 0.0 101042
08:00+16с118087 0.0 1010193
11:00+20сз116045 0.0 1009957
14:00+23зюз2247100 0.0 10081855
17:00+24юз334572 0.0 10071499
20:00+21ю225691 0.0 100731
12 августа, пт
пт1223:00+17св347059 0.1 1009111
02:00+13ссв339125 0.6 101040
05:00+12с11935 0.1 101111
08:00+15с22805 0.2 1011217
11:00+20св335599 0.1 1009946
14:00+23с224780 0.1 10061344
17:00+24с224493 0.0 10041430
20:00+19с1168100 0.3 100511
13 августа, сб
сб1323:00+17с2281100 1.1 100616
02:00+16с1183100 1.3 100511
05:00+14ссв228969 0.0 100512
08:00+16с2283100 0.1 1006189
11:00+20ссв2263100 0.1 1004923
14:00+24с3351100 0.1 10031632
17:00+23с4553100 0.1 10031035
20:00+16с3681100 0.5 1005171
14 августа, вс
вс1423:00+13ссз34859 0.1 100762
02:00+12ссз228811 0.1 100823
05:00+11ссз22915 0.0 100813
08:00+14ссз23814 0.0 1010255
11:00+19с34590 0.0 10091004
14:00+22с22440 0.0 10081420
17:00+23с12370 0.0 10071408
20:00+18ююв22510 0.0 100811